カタログに戻る

DELTA 1 DEB

運用中LEO
NORAD 10207·DEBRIS·🇺🇸 United States

打ち上げ Jul 14, 1977 から Cape Canaveral Space Force Station

Loading…

次のパス (今後24時間)

TLE

最新Source: Space-Track

元期: Sep 13, 2026, 23:50 UTC

1 10207U 77065AL  26256.99372838  .00002589  00000-0  47778-2 0  9994
2 10207  29.0802 202.7824 0668978  73.6313 293.6684 12.74102740265521

AllMySatでDELTA 1 DEBをリアルタイム追跡

Download on the App Store